Weather History for Meridian, MS

Change the Weather History Date:

Thursday, March 7, 2013

  Actual Average Record
Temperature  
Mean Temperature 46 °F 54 °F  
Max Temperature 61 °F 67 °F 85 °F (1974)
Min Temperature 30 °F 41 °F 20 °F (1966)
Degree Days  
Heating Degree Days 19 12  
Month to date heating degree days 149 87  
Since 1 July heating degree days 2036 2184  
Cooling Degree Days 0 0  
Month to date cooling degree days 0 0  
Year to date cooling degree days 16 7  
Moisture  
Dew Point 32 °F    
Average Humidity 66    
Maximum Humidity 100    
Minimum Humidity 31    
Precipitation  
Precipitation 0.00 in 0.19 in 3.36 in (1958)
Month to date precipitation 0.01 1.30  
Year to date precipitation 18.84 12.03  
Sea Level Pressure  
Sea Level Pressure 30.30 in    
Wind  
Wind Speed 3 mph (NNE)    
Max Wind Speed 10 mph    
Max Gust Speed 14 mph    
Visibility 10 miles    
Events      
T = Trace of Precipitation, MM = Missing Value Source: NWS Daily Summary

Daily Weather History Graph

Daily Weather History Graph

Search for Another Location

Airport:

Trip Planner

Search our weather history database for the weather conditions in past years. The results will help you decide how hot, cold, wet, or windy it might be!

Date:

Astronomy

Mar. 07, 2013 Rise Set
Actual Time 6:14 AM CST 5:57 PM CST
Civil Twilight 5:50 AM CST 6:21 PM CST
Nautical Twilight 5:22 AM CST 6:50 PM CST
Astronomical Twilight 4:53 AM CST 7:18 PM CST
Moon 3:02 AM CST (3/7) 1:56 PM CST (3/7)
Length of Visible Light 12h 31m
Length of Day
11h 42m
Waning Crescent, 20% of the Moon is Illuminated
Mar 7
Waning Crescent
Mar 11
New
Mar 19
First Quarter
Mar 27
Full
Apr 2
Last Quarter

Hourly Weather History & Observations

Time (CST) Temp. Windchill Dew Point Humidity Pressure Visibility Wind Dir Wind Speed Gust Speed Precip Events Conditions
12:58 AM 30.9 °F - 30.0 °F 96% 30.31 in 9.0 mi Calm Calm - N/A   Clear
1:58 AM 30.0 °F - 28.9 °F 96% 30.30 in 8.0 mi Calm Calm - N/A   Clear
2:58 AM 32.0 °F 28.7 °F 30.0 °F 92% 30.29 in 10.0 mi NNW 3.5 mph - N/A   Clear
3:58 AM 32.0 °F - 30.0 °F 92% 30.30 in 10.0 mi Calm Calm - N/A   Clear
4:58 AM 33.1 °F - 30.0 °F 89% 30.30 in 10.0 mi Calm Calm - N/A   Clear
5:58 AM 33.1 °F 27.7 °F 30.0 °F 89% 30.32 in 10.0 mi North 5.8 mph - N/A   Clear
6:58 AM 36.0 °F 31.1 °F 28.9 °F 76% 30.34 in 10.0 mi NE 5.8 mph - N/A   Clear
7:58 AM 37.0 °F 31.6 °F 30.0 °F 76% 30.37 in 10.0 mi ENE 6.9 mph - N/A   Clear
8:58 AM 43.0 °F 39.5 °F 30.0 °F 60% 30.38 in 10.0 mi NE 5.8 mph - N/A   Clear
9:58 AM 45.0 °F 41.2 °F 28.9 °F 53% 30.38 in 10.0 mi NE 6.9 mph - N/A   Clear
10:58 AM 48.9 °F - 28.9 °F 46% 30.36 in 10.0 mi NE 6.9 mph - N/A   Clear
11:58 AM 51.1 °F - 28.0 °F 41% 30.34 in 10.0 mi East 3.5 mph - N/A   Clear
12:58 PM 55.0 °F - 28.9 °F 37% 30.29 in 10.0 mi Calm Calm - N/A   Clear
1:58 PM 57.0 °F - 28.9 °F 34% 30.28 in 10.0 mi Calm Calm - N/A   Clear
2:58 PM 59.0 °F - 28.9 °F 32% 30.27 in 10.0 mi North 4.6 mph - N/A   Clear
3:58 PM 60.1 °F - 30.0 °F 32% 30.26 in 10.0 mi Variable 4.6 mph - N/A   Clear
4:58 PM 59.0 °F - 30.9 °F 35% 30.25 in 10.0 mi North 5.8 mph - N/A   Clear
5:58 PM 52.0 °F - 36.0 °F 54% 30.26 in 10.0 mi Calm Calm - N/A   Clear
6:58 PM 45.0 °F - 37.9 °F 76% 30.27 in 10.0 mi Calm Calm - N/A   Clear
7:58 PM 42.1 °F - 37.0 °F 82% 30.28 in 10.0 mi Calm Calm - N/A   Clear
8:58 PM 41.0 °F - 37.0 °F 86% 30.27 in 10.0 mi Calm Calm - N/A   Clear
9:58 PM 37.9 °F - 36.0 °F 93% 30.27 in 10.0 mi Calm Calm - N/A   Clear
10:58 PM 37.0 °F - 35.1 °F 93% 30.28 in 10.0 mi Calm Calm - N/A   Clear
11:58 PM 35.1 °F - 34.0 °F 96% 30.28 in 9.0 mi Calm Calm - N/A   Clear